Time,TemperatureF,DewpointF,PressureIn,WindDirection,WindDirectionDegrees,WindSpeedMPH,WindSpeedGustMPH,Humidity,HourlyPrecipIn,Conditions,Clouds,dailyrainin,SoftwareType,DateUTC
2013-06-24 00:02:00,80.0,68.0,29.94,SSW,203,1.0,-999.0,68,-99.99,,,-99.99,,2013-06-24 05:02:00,
2013-06-24 00:12:00,80.0,69.0,29.93,ESE,123,1.0,-999.0,69,-99.99,,,-99.99,,2013-06-24 05:12:00,
2013-06-24 00:22:00,79.0,68.0,29.93,SE,124,1.0,-999.0,69,-99.99,,,-99.99,,2013-06-24 05:22:00,
2013-06-24 00:35:00,79.0,68.0,29.93,ESE,119,0.0,-999.0,70,-99.99,,,-99.99,,2013-06-24 05:35:00,
2013-06-24 00:53:00,79.0,69.0,29.94,SSE,161,1.0,-999.0,71,-99.99,,,-99.99,,2013-06-24 05:53:00,
2013-06-24 01:13:00,78.0,68.0,29.94,East,79,1.0,-999.0,72,-99.99,,,-99.99,,2013-06-24 06:13:00,
2013-06-24 01:23:00,78.0,69.0,29.94,SSW,202,1.0,-999.0,73,-99.99,,,-99.99,,2013-06-24 06:23:00,
2013-06-24 01:34:00,78.0,69.0,29.94,ESE,114,1.0,-999.0,73,-99.99,,,-99.99,,2013-06-24 06:34:00,
2013-06-24 01:43:00,78.0,69.0,29.94,SE,134,0.0,-999.0,74,-99.99,,,-99.99,,2013-06-24 06:43:00,
2013-06-24 01:52:00,77.0,68.0,29.94,ESE,117,0.0,-999.0,75,-99.99,,,-99.99,,2013-06-24 06:52:00,
2013-06-24 02:03:00,77.0,68.0,29.94,SSE,165,0.0,-999.0,75,-99.99,,,-99.99,,2013-06-24 07:03:00,
2013-06-24 02:13:00,77.0,69.0,29.95,SSE,154,0.0,-999.0,76,-99.99,,,-99.99,,2013-06-24 07:13:00,
2013-06-24 02:27:00,77.0,69.0,29.95,SE,126,0.0,-999.0,76,-99.99,,,-99.99,,2013-06-24 07:27:00,
2013-06-24 02:35:00,77.0,69.0,29.95,SE,144,0.0,-999.0,77,-99.99,,,-99.99,,2013-06-24 07:35:00,
2013-06-24 02:46:00,76.0,68.0,29.96,ESE,116,0.0,-999.0,77,-99.99,,,-99.99,,2013-06-24 07:46:00,
2013-06-24 02:53:00,76.0,69.0,29.96,ESE,114,0.0,-999.0,78,-99.99,,,-99.99,,2013-06-24 07:53:00,
2013-06-24 03:03:00,76.0,69.0,29.96,ESE,112,0.0,-999.0,78,-99.99,,,-99.99,,2013-06-24 08:03:00,
2013-06-24 03:25:00,76.0,69.0,29.96,ESE,117,0.0,-999.0,79,-99.99,,,-99.99,,2013-06-24 08:25:00,
2013-06-24 03:45:00,76.0,69.0,29.96,SE,128,0.0,-999.0,79,-99.99,,,-99.99,,2013-06-24 08:45:00,
2013-06-24 03:52:00,75.0,68.0,29.97,ESE,106,0.0,-999.0,80,-99.99,,,-99.99,,2013-06-24 08:52:00,
2013-06-24 04:05:00,75.0,68.0,29.97,SE,126,0.0,-999.0,80,-99.99,,,-99.99,,2013-06-24 09:05:00,
2013-06-24 04:14:00,75.0,69.0,29.97,SSE,151,0.0,-999.0,81,-99.99,,,-99.99,,2013-06-24 09:14:00,
2013-06-24 04:25:00,75.0,69.0,29.97,SE,134,0.0,-999.0,81,-99.99,,,-99.99,,2013-06-24 09:25:00,
2013-06-24 04:36:00,75.0,69.0,29.97,SE,134,0.0,-999.0,81,-99.99,,,-99.99,,2013-06-24 09:36:00,
2013-06-24 04:45:00,75.0,69.0,29.97,ESE,116,0.0,-999.0,81,-99.99,,,-99.99,,2013-06-24 09:45:00,
2013-06-24 04:55:00,75.0,69.0,29.97,ESE,117,0.0,-999.0,82,-99.99,,,-99.99,,2013-06-24 09:55:00,
2013-06-24 05:02:00,74.0,68.0,29.97,ESE,121,0.0,-999.0,82,-99.99,,,-99.99,,2013-06-24 10:02:00,
2013-06-24 05:13:00,74.0,68.0,29.97,SE,140,0.0,-999.0,82,-99.99,,,-99.99,,2013-06-24 10:13:00,
2013-06-24 05:23:00,74.0,68.0,29.97,ESE,103,0.0,-999.0,82,-99.99,,,-99.99,,2013-06-24 10:23:00,
2013-06-24 05:36:00,74.0,68.0,29.97,East,80,0.0,-999.0,82,-99.99,,,-99.99,,2013-06-24 10:36:00,
2013-06-24 05:47:00,74.0,68.0,29.97,SE,127,0.0,-999.0,82,-99.99,,,-99.99,,2013-06-24 10:47:00,
2013-06-24 05:54:00,74.0,68.0,29.97,SE,128,0.0,-999.0,82,-99.99,,,-99.99,,2013-06-24 10:54:00,
2013-06-24 06:02:00,74.0,68.0,29.97,ESE,110,0.0,-999.0,81,-99.99,,,-99.99,,2013-06-24 11:02:00,
2013-06-24 06:14:00,74.0,68.0,29.97,ESE,104,0.0,-999.0,81,-99.99,,,-99.99,,2013-06-24 11:14:00,
2013-06-24 06:27:00,74.0,68.0,29.97,SE,140,0.0,-999.0,81,-99.99,,,-99.99,,2013-06-24 11:27:00,
2013-06-24 06:34:00,74.0,68.0,29.97,East,92,0.0,-999.0,81,-99.99,,,-99.99,,2013-06-24 11:34:00,
2013-06-24 06:44:00,74.0,68.0,29.97,ESE,117,0.0,-999.0,81,-99.99,,,-99.99,,2013-06-24 11:44:00,
2013-06-24 06:54:00,74.0,68.0,29.97,ESE,120,0.0,-999.0,81,-99.99,,,-99.99,,2013-06-24 11:54:00,
2013-06-24 07:03:00,75.0,69.0,29.97,SSE,167,0.0,-999.0,81,-99.99,,,-99.99,,2013-06-24 12:03:00,
2013-06-24 07:15:00,75.0,69.0,29.98,SSE,167,0.0,-999.0,81,-99.99,,,-99.99,,2013-06-24 12:15:00,
2013-06-24 07:23:00,75.0,69.0,29.98,South,174,0.0,-999.0,81,-99.99,,,-99.99,,2013-06-24 12:23:00,
2013-06-24 07:36:00,75.0,69.0,29.98,SSE,150,0.0,-999.0,81,-99.99,,,-99.99,,2013-06-24 12:36:00,
2013-06-24 07:46:00,75.0,69.0,29.99,South,186,0.0,-999.0,81,-99.99,,,-99.99,,2013-06-24 12:46:00,
2013-06-24 07:53:00,75.0,69.0,29.99,SSE,164,0.0,-999.0,81,-99.99,,,-99.99,,2013-06-24 12:53:00,
2013-06-24 08:04:00,76.0,69.0,29.99,South,171,0.0,-999.0,80,-99.99,,,-99.99,,2013-06-24 13:04:00,
2013-06-24 08:22:00,77.0,70.0,29.99,SE,126,0.0,-999.0,78,-99.99,,,-99.99,,2013-06-24 13:22:00,
2013-06-24 08:34:00,77.0,70.0,29.99,SE,124,0.0,-999.0,78,-99.99,,,-99.99,,2013-06-24 13:34:00,
2013-06-24 08:43:00,78.0,70.0,30.00,SSE,152,1.0,-999.0,76,-99.99,,,-99.99,,2013-06-24 13:43:00,
2013-06-24 08:54:00,79.0,70.0,30.00,ESE,117,0.0,-999.0,75,-99.99,,,-99.99,,2013-06-24 13:54:00,
2013-06-24 09:02:00,80.0,71.0,30.00,South,178,0.0,-999.0,73,-99.99,,,-99.99,,2013-06-24 14:02:00,
2013-06-24 09:14:00,80.0,70.0,30.01,South,189,0.0,-999.0,72,-99.99,,,-99.99,,2013-06-24 14:14:00,
2013-06-24 09:22:00,81.0,70.0,30.01,SSW,192,0.0,-999.0,69,-99.99,,,-99.99,,2013-06-24 14:22:00,
2013-06-24 09:36:00,81.0,69.0,30.01,SSE,165,1.0,-999.0,67,-99.99,,,-99.99,,2013-06-24 14:36:00,
2013-06-24 09:44:00,82.0,69.0,30.01,SSW,209,1.0,-999.0,65,-99.99,,,-99.99,,2013-06-24 14:44:00,
2013-06-24 10:12:00,82.0,67.0,30.01,SSE,168,1.0,-999.0,61,-99.99,,,-99.99,,2013-06-24 15:12:00,
2013-06-24 10:26:00,83.0,68.0,30.01,SSE,162,1.0,-999.0,60,-99.99,,,-99.99,,2013-06-24 15:26:00,
2013-06-24 10:45:00,84.0,67.0,30.01,West,270,1.0,-999.0,57,-99.99,,,-99.99,,2013-06-24 15:45:00,
2013-06-24 10:54:00,84.0,65.0,30.00,SSE,158,1.0,-999.0,53,-99.99,,,-99.99,,2013-06-24 15:54:00,
2013-06-24 11:03:00,84.0,66.0,30.00,South,184,2.0,-999.0,55,-99.99,,,-99.99,,2013-06-24 16:03:00,
2013-06-24 11:13:00,85.0,66.0,30.00,ESE,110,2.0,-999.0,53,-99.99,,,-99.99,,2013-06-24 16:13:00,
2013-06-24 11:23:00,85.0,65.0,30.00,SSE,150,1.0,-999.0,52,-99.99,,,-99.99,,2013-06-24 16:23:00,
2013-06-24 11:34:00,86.0,66.0,30.00,SSE,167,1.0,-999.0,52,-99.99,,,-99.99,,2013-06-24 16:34:00,
2013-06-24 11:43:00,86.0,67.0,30.00,SW,222,1.0,-999.0,53,-99.99,,,-99.99,,2013-06-24 16:43:00,
2013-06-24 11:54:00,86.0,66.0,29.99,ESE,114,1.0,-999.0,51,-99.99,,,-99.99,,2013-06-24 16:54:00,
2013-06-24 12:04:00,86.0,65.0,29.99,SSE,151,2.0,-999.0,50,-99.99,,,-99.99,,2013-06-24 17:04:00,
2013-06-24 12:13:00,87.0,65.0,30.00,South,184,2.0,-999.0,49,-99.99,,,-99.99,,2013-06-24 17:13:00,
2013-06-24 12:24:00,88.0,66.0,30.00,East,97,1.0,-999.0,49,-99.99,,,-99.99,,2013-06-24 17:24:00,
2013-06-24 12:34:00,87.0,65.0,30.00,SW,222,2.0,-999.0,48,-99.99,,,-99.99,,2013-06-24 17:34:00,
2013-06-24 12:44:00,88.0,66.0,30.00,SSW,203,2.0,-999.0,48,-99.99,,,-99.99,,2013-06-24 17:44:00,
2013-06-24 12:55:00,88.0,66.0,29.99,SSE,167,2.0,-999.0,48,-99.99,,,-99.99,,2013-06-24 17:55:00,
2013-06-24 13:02:00,88.0,67.0,29.99,SSW,195,2.0,-999.0,50,-99.99,,,-99.99,,2013-06-24 18:02:00,
2013-06-24 13:14:00,89.0,65.0,29.98,South,176,1.0,-999.0,46,-99.99,,,-99.99,,2013-06-24 18:14:00,
2013-06-24 13:23:00,89.0,66.0,29.97,SSE,157,2.0,-999.0,47,-99.99,,,-99.99,,2013-06-24 18:23:00,
2013-06-24 13:34:00,88.0,66.0,29.97,WSW,239,2.0,-999.0,48,-99.99,,,-99.99,,2013-06-24 18:34:00,
2013-06-24 13:45:00,90.0,66.0,29.97,ESE,110,1.0,-999.0,46,-99.99,,,-99.99,,2013-06-24 18:45:00,
2013-06-24 13:53:00,90.0,64.0,29.97,SSE,148,2.0,-999.0,43,-99.99,,,-99.99,,2013-06-24 18:53:00,
2013-06-24 14:05:00,90.0,66.0,29.97,SW,230,2.0,-999.0,46,-99.99,,,-99.99,,2013-06-24 19:05:00,
2013-06-24 14:13:00,90.0,66.0,29.96,SSW,209,1.0,-999.0,45,-99.99,,,-99.99,,2013-06-24 19:13:00,
2013-06-24 14:24:00,90.0,65.0,29.96,South,175,2.0,-999.0,44,-99.99,,,-99.99,,2013-06-24 19:24:00,
2013-06-24 14:35:00,90.0,64.0,29.96,SW,223,1.0,-999.0,43,-99.99,,,-99.99,,2013-06-24 19:35:00,
2013-06-24 15:03:00,91.0,67.0,29.95,South,188,1.0,-999.0,45,-99.99,,,-99.99,,2013-06-24 20:03:00,
2013-06-24 15:12:00,90.0,67.0,29.94,ESE,121,1.0,-999.0,47,-99.99,,,-99.99,,2013-06-24 20:12:00,
2013-06-24 15:23:00,90.0,66.0,29.93,SSE,157,2.0,-999.0,46,-99.99,,,-99.99,,2013-06-24 20:23:00,
2013-06-24 15:33:00,91.0,65.0,29.94,ESE,109,2.0,-999.0,43,-99.99,,,-99.99,,2013-06-24 20:33:00,
2013-06-24 15:44:00,89.0,67.0,29.93,ESE,107,2.0,-999.0,48,-99.99,,,-99.99,,2013-06-24 20:44:00,
2013-06-24 16:03:00,90.0,68.0,29.93,South,174,2.0,-999.0,48,-99.99,,,-99.99,,2013-06-24 21:03:00,
2013-06-24 16:12:00,90.0,66.0,29.93,South,171,2.0,-999.0,46,-99.99,,,-99.99,,2013-06-24 21:12:00,
2013-06-24 16:36:00,91.0,67.0,29.93,SE,144,2.0,-999.0,46,-99.99,,,-99.99,,2013-06-24 21:36:00,
2013-06-24 16:46:00,91.0,67.0,29.92,NNE,13,2.0,-999.0,46,-99.99,,,-99.99,,2013-06-24 21:46:00,
2013-06-24 16:53:00,90.0,66.0,29.92,ESE,110,2.0,-999.0,45,-99.99,,,-99.99,,2013-06-24 21:53:00,
2013-06-24 17:04:00,90.0,66.0,29.92,West,260,2.0,-999.0,45,-99.99,,,-99.99,,2013-06-24 22:04:00,
2013-06-24 17:13:00,91.0,66.0,29.91,West,275,1.0,-999.0,44,-99.99,,,-99.99,,2013-06-24 22:13:00,
2013-06-24 17:23:00,91.0,67.0,29.91,ESE,119,1.0,-999.0,46,-99.99,,,-99.99,,2013-06-24 22:23:00,
2013-06-24 17:34:00,90.0,66.0,29.91,ESE,109,2.0,-999.0,45,-99.99,,,-99.99,,2013-06-24 22:34:00,
2013-06-24 17:46:00,90.0,67.0,29.91,SSE,155,1.0,-999.0,47,-99.99,,,-99.99,,2013-06-24 22:46:00,
2013-06-24 17:53:00,90.0,68.0,29.91,SSW,200,2.0,-999.0,49,-99.99,,,-99.99,,2013-06-24 22:53:00,
2013-06-24 18:11:00,89.0,68.0,29.91,SSE,154,2.0,-999.0,51,-99.99,,,-99.99,,2013-06-24 23:11:00,
2013-06-24 18:25:00,89.0,69.0,29.90,SSW,209,1.0,-999.0,52,-99.99,,,-99.99,,2013-06-24 23:25:00,
2013-06-24 18:34:00,89.0,69.0,29.90,ESE,107,2.0,-999.0,52,-99.99,,,-99.99,,2013-06-24 23:34:00,
2013-06-24 18:44:00,88.0,69.0,29.89,ENE,73,2.0,-999.0,54,-99.99,,,-99.99,,2013-06-24 23:44:00,
2013-06-24 18:53:00,88.0,69.0,29.89,East,96,2.0,-999.0,53,-99.99,,,-99.99,,2013-06-24 23:53:00,
2013-06-24 19:02:00,87.0,69.0,29.89,SE,144,1.0,-999.0,55,-99.99,,,-99.99,,2013-06-25 00:02:00,
2013-06-24 19:12:00,87.0,69.0,29.89,South,169,1.0,-999.0,56,-99.99,,,-99.99,,2013-06-25 00:12:00,
2013-06-24 19:22:00,87.0,70.0,29.90,SE,133,1.0,-999.0,57,-99.99,,,-99.99,,2013-06-25 00:22:00,
2013-06-24 19:33:00,87.0,69.0,29.90,SSW,199,2.0,-999.0,56,-99.99,,,-99.99,,2013-06-25 00:33:00,
2013-06-24 19:45:00,87.0,69.0,29.90,SE,141,1.0,-999.0,56,-99.99,,,-99.99,,2013-06-25 00:45:00,
2013-06-24 19:54:00,86.0,69.0,29.90,SSE,168,1.0,-999.0,57,-99.99,,,-99.99,,2013-06-25 00:54:00,
2013-06-24 20:03:00,86.0,69.0,29.90,SE,128,1.0,-999.0,58,-99.99,,,-99.99,,2013-06-25 01:03:00,
2013-06-24 20:14:00,85.0,69.0,29.90,SW,215,1.0,-999.0,59,-99.99,,,-99.99,,2013-06-25 01:14:00,
2013-06-24 20:23:00,85.0,69.0,29.90,East,100,2.0,-999.0,59,-99.99,,,-99.99,,2013-06-25 01:23:00,
2013-06-24 20:34:00,84.0,68.0,29.89,South,191,1.0,-999.0,59,-99.99,,,-99.99,,2013-06-25 01:34:00,
2013-06-24 20:44:00,84.0,69.0,29.89,SE,143,1.0,-999.0,60,-99.99,,,-99.99,,2013-06-25 01:44:00,
2013-06-24 20:54:00,84.0,69.0,29.89,SE,134,0.0,-999.0,61,-99.99,,,-99.99,,2013-06-25 01:54:00,
2013-06-24 21:03:00,83.0,69.0,29.89,SE,124,0.0,-999.0,62,-99.99,,,-99.99,,2013-06-25 02:03:00,
2013-06-24 21:14:00,83.0,69.0,29.89,South,174,0.0,-999.0,62,-99.99,,,-99.99,,2013-06-25 02:14:00,
2013-06-24 21:24:00,83.0,69.0,29.89,South,186,1.0,-999.0,63,-99.99,,,-99.99,,2013-06-25 02:24:00,
2013-06-24 21:35:00,82.0,69.0,29.89,SE,145,1.0,-999.0,64,-99.99,,,-99.99,,2013-06-25 02:35:00,
2013-06-24 21:43:00,82.0,69.0,29.89,ESE,117,1.0,-999.0,64,-99.99,,,-99.99,,2013-06-25 02:43:00,
2013-06-24 21:55:00,82.0,69.0,29.90,SSE,152,1.0,-999.0,65,-99.99,,,-99.99,,2013-06-25 02:55:00,
2013-06-24 22:04:00,82.0,69.0,29.90,ESE,113,1.0,-999.0,65,-99.99,,,-99.99,,2013-06-25 03:04:00,
2013-06-24 22:13:00,82.0,69.0,29.90,SSW,203,1.0,-999.0,65,-99.99,,,-99.99,,2013-06-25 03:13:00,
2013-06-24 22:48:00,81.0,68.0,29.92,SE,141,1.0,-999.0,65,-99.99,,,-99.99,,2013-06-25 03:48:00,
2013-06-24 22:56:00,81.0,68.0,29.93,SE,141,1.0,-999.0,65,-99.99,,,-99.99,,2013-06-25 03:56:00,
2013-06-24 23:02:00,81.0,68.0,29.93,ENE,75,1.0,-999.0,65,-99.99,,,-99.99,,2013-06-25 04:02:00,
2013-06-24 23:11:00,81.0,68.0,29.93,SW,216,1.0,-999.0,65,-99.99,,,-99.99,,2013-06-25 04:11:00,
2013-06-24 23:22:00,81.0,68.0,29.93,ESE,113,1.0,-999.0,65,-99.99,,,-99.99,,2013-06-25 04:22:00,
2013-06-24 23:34:00,81.0,68.0,29.93,SE,133,1.0,-999.0,65,-99.99,,,-99.99,,2013-06-25 04:34:00,
2013-06-24 23:42:00,81.0,69.0,29.93,SE,136,1.0,-999.0,66,-99.99,,,-99.99,,2013-06-25 04:42:00,
2013-06-24 23:52:00,80.0,68.0,29.93,SSE,150,1.0,-999.0,66,-99.99,,,-99.99,,2013-06-25 04:52:00,